Location: Laas
(43.4693°N, 0.3073°E)
Time: 16:06:58
(UTC+00:00)

USA 215 - Pass Details

Date: 25 October 2020
Orbit: 1102 x 1106 km, 123.0° (Epoch: 23 November)

Event Time Altitude Azimuth Distance (km) Brightness Sun altitude
Exits shadow 19:20:23 43° 48° (NE) 1,504 3.6 -26.2°
Maximum altitude 19:21:15 45° 26° (NNE) 1,458 3.7 -26.3°
Drops below altitude 10° 19:27:24 10° 317° (NW) 2,965 6.2 -27.4°
Sets 19:29:59 0° 311° (NW) 3,925 7.0 -27.9°
